Regional Weather Roundup
Issued by NWS

Home | Current Version | Previous Version | Graphics & Text | Print | Product List | Glossary On
Versions: 1 2 3 4 5 6 7 8 9 10 11 12 13 14 15 16 17 18 19 20 21 22 23 24 25 26 27 28 29 30 31 32 33 34 35 36 37 38 39 40 41 42 43 44 45 46 47 48 49 50
000
ASUS45 KCYS 210410
RWRWY

WYOMING REGIONAL WEATHER ROUNDUP
NATIONAL WEATHER SERVICE CHEYENNE WY
1000 PM MDT SAT SEP 20 2014

NOTE:  "FAIR" INDICATES FEW OR NO CLOUDS BELOW 12,000 FEET
WITH NO SIGNIFICANT WEATHER AND/OR OBSTRUCTIONS TO VISIBILITY.

WYZ001-210500-
YELLOWSTONE NATIONAL PARK

CITY           SKY/WX    TMP DP  RH WIND       PRES   REMARKS
LK YELLOWSTONE   N/A     41  37  86 W3        30.42R
W YELLOWSTONE  NOT AVBL

$$
WYZ002>013-054>058-071-098>099-210500-
NORTHERN WYOMING

CITY           SKY/WX    TMP DP  RH WIND       PRES   REMARKS
JACKSON        CLEAR     52  43  71 N6        30.29R
CODY             N/A    N/A N/A N/A MISG        N/A
GREYBULL       CLEAR     60  41  49 S8        30.23R
WORLAND        CLEAR     60  40  47 E7        30.25R
SHERIDAN       CLEAR     49  42  77 CALM      30.29R
BUFFALO        CLEAR     52  41  66 W5        30.35R
GILLETTE       CLEAR     43  38  82 SW3       30.30R
HULETT         FAIR      55  36  47 MISG      30.31
NEWCASTLE      FAIR      54  34  47 N7        30.30

$$
WYZ014>020-022>026-101>103-210500-
CENTRAL WYOMING

CITY           SKY/WX    TMP DP  RH WIND       PRES   REMARKS
BIG PINEY      CLEAR     51  35  54 W5        30.33R
PINEDALE       CLEAR     52  32  46 E3        30.34S
DUBOIS         FAIR      52  36  54 S3        30.39R
LANDER         CLEAR     60  41  49 W7        30.30R
RIVERTON       CLEAR     62  39  42 E10       30.31R
CASPER         CLEAR     52  36  54 NE7       30.33R
DOUGLAS        CLEAR     50  36  58 SE6       30.35R

$$
WYZ021-027>030-104>119-210500-
SOUTHERN WYOMING

CITY           SKY/WX    TMP DP  RH WIND       PRES   REMARKS
EVANSTON       PTCLDY    63  27  25 E8        30.30S
KEMMERER       CLEAR     59  32  36 N3        30.33S
FORT BRIDGER   FAIR      64  29  27 E7        30.33S
ROCK SPRINGS   CLEAR     61  32  33 NE13      30.30R
DIXON          FAIR      58  36  44 NE5       30.30F
RAWLINS        CLEAR     61  40  45 NE21G30   30.35R
SARATOGA       FAIR      55  37  50 S10       30.35R
LARAMIE        CLEAR     57  40  52 E15       30.41R
CHEYENNE       CLOUDY    61  40  45 E7        30.40R
TORRINGTON     MOCLDY    56  39  53 NE10      30.29R
PINE BLUFFS    FAIR      55  43  62 SW5       30.35R

$$



USA.gov is the U.S. government's official web portal to all federal, state and local government web resources and services.